Location: Unspecified
(0.0000°N, 0.0000°E)
Time: 11:56:30
(UTC+00:00)

CZ-3C DEB - Pass Details

Date: 16 February 2026
Orbit: 610 x 36841 km, 20.5° (Epoch: 4 October)

Event Time Altitude Azimuth Distance (km) Brightness Sun altitude
Rises 22:22:56 0° 252° (WSW) 10,716 ? -59.9°
Reaches altitude 10° 22:37:02 10° 234° (SW) 5,409 ? -63.1°
Enters shadow 22:41:17 14° 218° (SW) 3,761 ? -64.0°
